Powrót do katalogu

CARTOSAT-1

AktywnyNaukaSSO
NORAD 28649·PAYLOAD·🇮🇳 India

Wystrzelony May 5, 2005 z Satish Dhawan Space Centre

Loading…

Następne Przeloty (najbliższe 24 godziny)

TLE

ŚwieżeSource: Space-Track

Epoka: Sep 13, 2026, 23:47 UTC

1 28649U 05017A   26256.99111116  .00000974  00000-0  10327-3 0  9998
2 28649  97.5292 276.0300 0002551 104.0096 256.1407 14.91238063157056

Śledź CARTOSAT-1 w czasie rzeczywistym z AllMySat

Download on the App Store